Regional Weather Roundup
Issued by NWS Jackson, KY

Home | Current Version | Previous Version | Graphics & Text | Print | Product List | Glossary On
Versions: 1 2 3 4 5 6 7 8 9 10 11 12 13 14 15 16 17 18 19 20 21 22 23 24 25 26 27
000
ASUS43 KJKL 240810
RWRJKL

EAST KENTUCKY HOURLY WEATHER ROUNDUP
NATIONAL WEATHER SERVICE JACKSON KY
400 AM EDT FRI MAR 24 2017

NOTE: "FAIR" INDICATES FEW OR NO CLOUDS BELOW 12,000 FEET WITH
NO SIGNIFICANT WEATHER AND/OR OBSTRUCTIONS TO VISIBILITY.

* THESE REPORTS ARE NOT UNDER NWS QUALITY CONTROL AND MAY NOT
  REPORT WEATHER SUCH AS PRECIPITATION AND FOG.

KYZ079-080-083-085-087-088-110-112-115-119-120-240900
...EASTERN KENTUCKY...

CITY           SKY/WX    TMP DP  RH WIND       PRES   REMARKS
JACKSON        CLEAR     54  33  45 VRB3      30.25F
LONDON         CLEAR     56  38  50 S6        30.26F
SOMERSET*      CLEAR     54  36  50 S13       30.27S
MONTICELLO*    CLEAR     56  40  55 VRB7G17   30.26F
WILLIAMSBURG*  SUNNY     55  41  58 S7        30.27F
MIDDLESBORO*   CLEAR     55  37  51 SE6       30.32S
HARLAN APT*    SUNNY     52  30  43 CALM      30.31S
PIKE CO APT*     N/A     54  30  40 S8        30.28S
BIG SANDY APT* SUNNY     55  31  38 S9        30.27F
MOREHEAD APT*  MOSUNNY   57  36  44 S10G16    30.23F
ASHLAND*       CLOUDY    48  36  61 E3        30.21F
$$

KYZ035-036-041-042-044-050-067-078-099-240900
...CENTRAL KENTUCKY...

CITY           SKY/WX    TMP DP  RH WIND       PRES   REMARKS
MT STERLING*   CLEAR     54  39  58 SW13      30.22F
FLEMING/MASON* PTCLDY    53  37  53 S10       30.20F
DANVILLE*      CLEAR     54  37  54 S14G21    30.21F
LEXINGTON      CLEAR     55  38  52 S12       30.19R
FRANKFORT      CLEAR     57  39  51 S10       30.17S
LOUISVILLE     PTCLDY    59  38  45 S13       30.15F
LEBANON*         N/A     55  37  50 S20G26    30.18F
GLASGOW*       CLEAR     55  39  54 S12G18    30.20F
BOWLING GREEN  CLEAR     59  42  53 S16       30.19F
$$

KYZ091>093-OHZ055-061-077-WVZ005-015-034-035-042-240900
...SOUTHERN OHIO/WEST VIRGINIA...

CITY           SKY/WX    TMP DP  RH WIND       PRES   REMARKS
COVINGTON      CLOUDY    53  38  56 S12       30.14F
COLUMBUS       CLOUDY    49  31  49 SE6       30.15F
DAYTON         CLOUDY    52  33  48 S13       30.12F
WILMINGTON     CLOUDY    51  37  58 S10       30.14F
HUNTINGTON     CLOUDY    57  30  35 S8        30.23F
CHARLESTON     CLOUDY    53  25  33 S9        30.26F
PINEVILLE*     CLOUDY    42  30  62 MISG      30.38F
BECKLEY        CLOUDY    44  22  41 SE12G17   30.33F
BLUEFIELD      CLOUDY    44  21  40 S7        30.35F
LOGAN CO APT*  CLOUDY    52  25  35 S8G15     30.28F
$$

VAZ002-007-008-TNZ017-027-036-066-071-240900
...SOUTHWEST VIRGINIA/EAST TENNESSEE...

CITY           SKY/WX    TMP DP  RH WIND       PRES   REMARKS
WISE*          CLOUDY    48  28  46 S10G17    30.34S
JONESVILLE*    CLOUDY    50  32  50 CALM      30.36S
ABINGDON*      CLOUDY    48  29  47 CALM      30.37S
BRISTOL        CLOUDY    51  28  41 SE3       30.36F
MORRISTOWN*    CLOUDY    46  34  61 CALM      30.33F
SEVIERVILLE*   SUNNY     43  37  81 CALM      30.33F
KNOXVILLE      CLOUDY    55  36  48 S5        30.33F
LAFOLLETTE*    CLOUDY    57  36  44 S9G16     30.34F
OAK RIDGE      CLOUDY    57  34  41 VRB3      30.35F
CROSSVILLE     CLEAR     53  37  54 VRB7G20   30.31F
NASHVILLE      CLEAR     59  45  59 S15G21    30.23F
$$

...KEY TO REMARKS...
VSB - VISIBILITY IN MILES
WCI - WIND CHILL INDEX
HX  - HEAT INDEX

$$




USA.gov is the U.S. government's official web portal to all federal, state and local government web resources and services.